Regional Weather Roundup
Issued by NWS Midland/Odessa, TX

Home | Current Version | Previous Version | Text Only | Print | Product List | Glossary On
Versions: 1 2 3 4 5 6 7 8 9 10 11 12 13 14 15 16 17 18 19 20 21 22 23 24 25 26 27 28 29 30 31 32 33 34 35 36 37 38 39 40 41 42 43 44 45 46 47 48 49 50
000
ASUS44 KMAF 271010
RWRMAF
MIDLAND AREA WEATHER ROUNDUP
NATIONAL WEATHER SERVICE MIDLAND TX
500 AM CDT MON APR 27 2015

...IN SOUTHWEST TEXAS AND SOUTHEAST NEW MEXICO...

CITY           SKY/WX    TMP DP  RH WIND       PRES   REMARKS
ALPINE         PTCLDY    47  29  49 W10       29.89S
ANDREWS        FAIR      48  38  67 W8        29.77S
ARTESIA        PTCLDY    46  36  66 W8        29.81R
BIG SPRING     PTCLDY    56  51  81 NW5       29.75S
CARLSBAD       CLEAR     46  34  62 N6        29.79R
DRYDEN           N/A     60  34  37 NW8       29.76R
FORT STOCKTON  MOCLDY    58  33  39 W12       29.79R
GUAD PASS      CLEAR     44  34  67 SW12      29.84R WCI  38
HOBBS          CLEAR     41  41 100 NW6       29.79S WCI  37
MARFA          PTCLDY    50  30  46 W15       29.88S
MIDLAND AIRPK  CLEAR     56  38  50 W8        29.75F
MIDLAND INTL   CLEAR     53  36  52 W12       29.74F
ODESSA         CLEAR     49  35  58 W7        29.77S
PECOS          PTCLDY    51  34  51 W10       29.78S
PRESIDIO       PTSUNNY   58  31  35 CALM      29.83R
SEMINOLE       CLEAR     47  43  88 W7        29.78S
SNYDER         CLOUDY    55  52  90 N10       29.73S
WINK           CLEAR     46  30  53 NW6       29.76S
$$
...OTHER STATIONS IN TEXAS...

CITY           SKY/WX    TMP DP  RH WIND       PRES   REMARKS
ABILENE        CLOUDY    59  55  87 NE3       29.67F
AMARILLO       HVY RAIN  45  44  97 N14       29.85S FOG     WCI  38
AUSTIN         MOCLDY    63  62  97 W3        29.61S
BROWNSVILLE    CLOUDY    80  78  94 S15       29.46F FOG
CORPUS CHRISTI CLOUDY    79  75  87 N14       29.54R FOG
DALLAS FTW     CLOUDY    66  58  75 E12       29.66R
DEL RIO        CLEAR     66  41  40 NW8       29.68S
EL PASO        PTCLDY    53  36  52 SW8       29.83S
HOUSTON INT    LGT RAIN  74  73  97 NW8       29.65R FOG
LUBBOCK        CLOUDY    51  50  96 N10       29.77R FOG
SAN ANGELO     CLEAR     54  51  90 W5        29.71R
SAN ANTONIO    MOCLDY    64  60  87 NW5       29.62S
WACO           CLOUDY    61  59  93 NE5       29.63S
WICHITA FALLS  NOT AVBL
$$
...OTHER LOCATIONS IN NEW MEXICO...

CITY           SKY/WX    TMP DP  RH WIND       PRES   REMARKS
ALAMAGORDO     CLOUDY    46  39  76 CALM      29.85S
ALBUQUERQUE    CLOUDY    45  40  82 SE5       29.92R
CANNON AFB     CLOUDY    48  45  87 NE15      29.83S
CLOVIS         CLOUDY    48  43  81 NE13      29.83S
HOLLOMAN AFB   MOCLDY    47  43  87 N6        29.84R
ROSWELL        CLEAR     50  41  71 NW13      29.78R
RUIDOSO        CLOUDY    39  36  87 N9        29.90R WCI  33
SANTA FE       MOCLDY    38  35  89 N10       29.93S WCI  31
TRUTH OR CONSE CLOUDY    46  42  86 N5        29.87S
TUCUMCARI      RAIN      48  46  93 N22       29.87R
$$


USA.gov is the U.S. government's official web portal to all federal, state and local government web resources and services.